Location: Detroit
(42.3310°N, 83.0460°W)
Time: 14:10:00
(UTC-04:00)

Courier 1B Rocket - Pass Details

Date: 22 April 2024
Orbit: 920 x 1201 km, 28.2° (Epoch: 19 May)

Event Time Altitude Azimuth Distance (km) Brightness Sun altitude
Exits shadow 04:53:22 18° 193° (SSW) 2,537 6.7 -18.2°
Maximum altitude 04:56:06 21° 166° (SSE) 2,303 6.7 -17.8°
Drops below altitude 10° 05:01:21 10° 120° (ESE) 2,971 7.8 -17.0°
Sets 05:04:46 0° 106° (ESE) 3,879 8.7 -16.5°
